Lumberton, NC

10:23 AM EDT on March 29, 2017 (GMT -0400)
Lumberton Municipal

Weather History for KLBT - July, 2013

Change the Weather History Date:

Sunday, July 14, 2013

  Actual Average Record
Temperature  
Mean Temperature 81 °F 81 °F  
Max Temperature 89 °F 91 °F 96 °F (2004)
Min Temperature 73 °F 71 °F 59 °F (2001)
Degree Days  
Heating Degree Days 0 0  
Month to date heating degree days 0 0  
Since 1 June heating degree days 0 0  
Since 1 July heating degree days 0 0  
Cooling Degree Days 16 16  
Month to date cooling degree days 206 224  
Year to date cooling degree days 799 862  
Since 1 June cooling degree days 607 612  
Growing Degree Days 31 (Base 50)    
Moisture  
Dew Point 73 °F    
Average Humidity 73    
Maximum Humidity 94    
Minimum Humidity 52    
Precipitation  
Precipitation T in 0.19 in 0.55 in (1999)
Month to date precipitation 5.12 2.10  
Year to date precipitation 30.31 21.51  
Sea Level Pressure  
Sea Level Pressure 30.21 in    
Wind  
Wind Speed 8 mph (ESE)    
Max Wind Speed 24 mph    
Max Gust Speed 30 mph    
Visibility 10 miles    
Events      
T = Trace of Precipitation, MM = Missing Value Source: NWS Daily Summary

Daily Weather History Graph

Daily Weather History Graph

Search for Another Location

Airport or City:

Trip Planner

Search our weather history database for the weather conditions in past years. The results will help you decide how hot, cold, wet, or windy it might be!

Date:

Astronomy

Jul. 14, 2013 Rise Set
Actual Time 6:14 AM EDT 8:29 PM EDT
Civil Twilight 5:45 AM EDT 8:58 PM EDT
Nautical Twilight 5:09 AM EDT 9:33 PM EDT
Astronomical Twilight 4:31 AM EDT 10:12 PM EDT
Moon 12:11 PM EDT (7/14) No Moon Set
Length of Visible Light 15h 13m
Length of Day
14h 15m
Waxing Crescent, 35% of the Moon is Illuminated
Jul 14
Waxing Crescent
Jul 15
First Quarter
Jul 22
Full
Jul 29
Last Quarter
Aug 6
New

Hourly Weather History & Observations

Time (EDT) Temp. Heat Index Dew Point Humidity Pressure Visibility Wind Dir Wind Speed Gust Speed Precip Events Conditions
12:13 AM 75.2 °F - 73.4 °F 94% 30.13 in 10.0 mi ESE 9.2 mph - N/A   Scattered Clouds
12:54 AM 73.9 °F - 72.0 °F 93% 30.14 in 10.0 mi ESE 9.2 mph - N/A   Clear
1:54 AM 73.9 °F - 72.0 °F 93% 30.15 in 10.0 mi ESE 10.4 mph - N/A   Mostly Cloudy
2:54 AM 73.9 °F - 72.0 °F 93% 30.16 in 10.0 mi ESE 9.2 mph - N/A   Partly Cloudy
3:54 AM 73.0 °F - 71.1 °F 93% 30.17 in 9.0 mi ESE 6.9 mph - N/A   Clear
4:54 AM 73.0 °F - 72.0 °F 96% 30.17 in 9.0 mi East 9.2 mph - N/A   Clear
5:54 AM 73.0 °F - 72.0 °F 96% 30.20 in 9.0 mi ESE 8.1 mph - N/A   Clear
6:54 AM 73.9 °F - 72.0 °F 93% 30.21 in 8.0 mi East 5.8 mph - N/A   Clear
7:47 AM 75.2 °F - 73.4 °F 94% 30.22 in 9.0 mi East 9.2 mph - N/A   Partly Cloudy
7:54 AM 77.0 °F - 73.9 °F 90% 30.22 in 9.0 mi East 6.9 mph - N/A   Partly Cloudy
8:54 AM 80.1 °F 84.5 °F 73.9 °F 81% 30.23 in 10.0 mi East 10.4 mph - N/A   Partly Cloudy
9:41 AM 82.4 °F 89.5 °F 75.2 °F 79% 30.24 in 10.0 mi East 11.5 mph - N/A   Mostly Cloudy
9:54 AM 82.0 °F 87.9 °F 73.9 °F 76% 30.24 in 10.0 mi East 9.2 mph - N/A   Mostly Cloudy
10:15 AM 82.4 °F 88.2 °F 73.4 °F 74% 30.24 in 10.0 mi ESE 12.7 mph 19.6 mph N/A   Mostly Cloudy
10:54 AM 84.0 °F 89.6 °F 72.0 °F 67% 30.25 in 10.0 mi East 11.5 mph 19.6 mph N/A   Partly Cloudy
11:54 AM 86.0 °F 93.0 °F 73.0 °F 65% 30.25 in 10.0 mi East 11.5 mph - N/A   Scattered Clouds
12:54 PM 86.0 °F 92.2 °F 72.0 °F 63% 30.25 in 10.0 mi SE 9.2 mph - N/A   Mostly Cloudy
1:54 PM 88.0 °F 95.6 °F 73.0 °F 61% 30.24 in 10.0 mi ESE 6.9 mph - 0.00 in   Scattered Clouds
2:54 PM 88.0 °F 94.7 °F 72.0 °F 59% 30.22 in 10.0 mi ESE 12.7 mph 21.9 mph N/A   Partly Cloudy
3:54 PM 89.1 °F 94.1 °F 70.0 °F 53% 30.21 in 10.0 mi East 15.0 mph 21.9 mph N/A   Clear
4:54 PM 88.0 °F 93.8 °F 71.1 °F 57% 30.20 in 10.0 mi SE 8.1 mph - N/A   Partly Cloudy
5:54 PM 87.1 °F 92.0 °F 70.0 °F 57% 30.20 in 10.0 mi ESE 10.4 mph - N/A   Clear
6:54 PM 84.0 °F 90.2 °F 73.0 °F 69% 30.21 in 10.0 mi ESE 6.9 mph - 0.00 in   Clear
7:54 PM 82.0 °F 87.9 °F 73.9 °F 76% 30.22 in 10.0 mi ESE 4.6 mph - N/A   Clear
8:54 PM 80.1 °F 84.5 °F 73.9 °F 81% 30.23 in 10.0 mi ESE 5.8 mph - N/A   Clear
9:54 PM 78.1 °F - 73.0 °F 84% 30.25 in 10.0 mi Calm Calm - N/A   Clear
10:54 PM 77.0 °F - 73.0 °F 88% 30.26 in 10.0 mi Calm Calm - N/A   Clear
11:54 PM 75.9 °F - 73.0 °F 91% 30.27 in 10.0 mi ESE 4.6 mph - N/A   Clear